Jay Michael — WDD2051 — position and weather

sailwx.info

Track history (hours):
 
Tides and Currents Weather Stations Pressure Air Temp Water Temp Dewpoint Dewpoint Depression Visibility Wind Speed Wind Dir Waves Ship Positions

Jay Michael

Owner: Sterling Equipment Inc., Quincy, MA. More information available from US FCC via Universal Licensing System and Coast Guard Vessel Documentation Center.

Last reported at 2014-Oct-04 00:32 UTC. Time now 2014-Oct-30 12:14 UTC.
Position N 27°00' W 079°51'.
Warning: this ship's position is 26 days out of date.

Length 21 m.

Type: Tug. MMSI: 367110280.

Date/timePositionNaut miles runAvg speedWind from/ knotsBaromVisibWave heightAir tempDewpointWater temp
2014-Oct-04 00:32N 27°00' W 079°51'2211.3
2014-Oct-03 22:33N 26°38' W 079°50'1111.3
2014-Oct-03 21:33N 26°26' W 079°50'1111.4
2014-Oct-03 20:33N 26°15' W 079°50'1110.8
2014-Oct-03 19:33N 26°05' W 079°55'1010.4
2014-Oct-03 18:33N 25°56' W 079°59'10 9.7
2014-Oct-03 17:33N 25°47' W 080°04'6 0.3
2014-Oct-02 20:17N 25°47' W 080°11'0 0.0
2014-Oct-02 19:33N 25°47' W 080°11'0 0.0
2014-Oct-02 18:33N 25°47' W 080°11'0 0.0
2014-Oct-02 17:04N 25°47' W 080°11'0 0.0
2014-Oct-02 16:33N 25°47' W 080°11'0 0.0
2014-Oct-02 14:18N 25°47' W 080°11'0 0.0
2014-Oct-02 13:29N 25°47' W 080°11'0 0.0
2014-Oct-02 12:09N 25°47' W 080°11'0 0.1
2014-Oct-02 11:30N 25°47' W 080°11'0 0.0
2014-Oct-02 10:33N 25°47' W 080°11'0 0.0
2014-Oct-02 09:33N 25°47' W 080°11'0 0.0
2014-Oct-02 08:32N 25°47' W 080°11'0 0.0
2014-Oct-02 07:33N 25°47' W 080°11'0 0.0
2014-Oct-02 06:31N 25°47' W 080°11'0 0.0
2014-Oct-02 05:33N 25°47' W 080°11'0 0.0
2014-Oct-02 04:31N 25°47' W 080°11'0 0.0
2014-Oct-02 03:32N 25°47' W 080°11'0 0.0
2014-Oct-02 02:31N 25°47' W 080°11'0 0.0
2014-Oct-02 01:30N 25°47' W 080°11'0 0.0
2014-Oct-01 23:31N 25°47' W 080°11'0 0.0
2014-Oct-01 22:27N 25°47' W 080°11'0 0.0
2014-Oct-01 21:27N 25°47' W 080°11'0 0.0
2014-Oct-01 20:33N 25°47' W 080°11'0 0.0
2014-Oct-01 18:32N 25°47' W 080°11'4 1.3
2014-Oct-01 15:33N 25°46' W 080°07'3 3.4
2014-Oct-01 14:33N 25°49' W 080°05'0 0.3
2014-Oct-01 13:33N 25°48' W 080°05'3 3.1
2014-Oct-01 12:33N 25°51' W 080°05'4 4.2
2014-Oct-01 11:33N 25°56' W 080°05'4 4.4
2014-Oct-01 10:33N 25°60' W 080°05'4 4.3
2014-Oct-01 09:33N 26°04' W 080°06'4 4.4
2014-Oct-01 08:33N 26°09' W 080°05'4 3.8
2014-Oct-01 07:33N 26°12' W 080°04'4 3.5
2014-Oct-01 06:33N 26°16' W 080°02'4 3.6
2014-Oct-01 05:33N 26°19' W 080°02'4 4.0
2014-Oct-01 04:33N 26°23' W 080°01'6 4.0
2014-Oct-01 03:07N 26°29' W 080°00'3 3.6
2014-Oct-01 02:17N 26°32' W 079°60'5 3.9
2014-Oct-01 01:06N 26°36' W 079°59'12 4.3
2014-Sep-30 22:21N 26°48' W 079°58'3 4.2
2014-Sep-30 21:33N 26°52' W 079°57'4 4.2
2014-Sep-30 20:33N 26°56' W 079°58'4 4.4
2014-Sep-30 19:33N 26°60' W 080°00'  
2014-Sep-25 15:11N 34°32' W 076°50'3 5.0
2014-Sep-25 14:33N 34°34' W 076°47'5 5.1
2014-Sep-25 13:33N 34°38' W 076°43'3 3.1
2014-Sep-25 12:33N 34°40' W 076°40'2 2.4
2014-Sep-25 11:33N 34°42' W 076°41'1 0.9
2014-Sep-25 10:33N 34°43' W 076°42'0 0.0
2014-Sep-25 09:33N 34°43' W 076°42'0 0.0
2014-Sep-25 08:33N 34°43' W 076°42'0 0.0
2014-Sep-25 07:33N 34°43' W 076°42'0 0.0
2014-Sep-25 06:33N 34°43' W 076°42'0 0.0
2014-Sep-25 05:33N 34°43' W 076°42'0 0.0
2014-Sep-25 04:34N 34°43' W 076°42'0 0.0
2014-Sep-25 03:33N 34°43' W 076°42'0 0.0
2014-Sep-25 02:33N 34°43' W 076°42'0 0.0
2014-Sep-25 01:33N 34°43' W 076°42'0 0.0
2014-Sep-25 00:33N 34°43' W 076°42'0 0.0
2014-Sep-24 23:33N 34°43' W 076°42'0 0.0
2014-Sep-24 22:33N 34°43' W 076°42'0 0.0
2014-Sep-24 21:33N 34°43' W 076°42'0 0.0
2014-Sep-24 20:33N 34°43' W 076°42'0 0.0
2014-Sep-24 19:33N 34°43' W 076°42'0 0.0
2014-Sep-24 18:33N 34°43' W 076°42'0 0.0
2014-Sep-24 17:33N 34°43' W 076°42'0 0.0
2014-Sep-24 16:33N 34°43' W 076°42'0 0.0
2014-Sep-24 15:33N 34°43' W 076°42'0 0.0
2014-Sep-24 14:33N 34°43' W 076°42'0 0.0
2014-Sep-24 13:33N 34°43' W 076°42'0 0.0
2014-Sep-24 12:33N 34°43' W 076°42'0 0.0
2014-Sep-24 11:33N 34°43' W 076°42'0 0.0
2014-Sep-24 10:33N 34°43' W 076°42'0 0.0
2014-Sep-24 09:33N 34°43' W 076°42'0 0.0
2014-Sep-24 08:34N 34°43' W 076°42'0 0.0
2014-Sep-24 07:33N 34°43' W 076°42'0 0.0
2014-Sep-24 06:33N 34°43' W 076°42'0 0.0
2014-Sep-24 05:33N 34°43' W 076°42'0 0.0
2014-Sep-24 04:33N 34°43' W 076°42'0 0.0
2014-Sep-24 03:33N 34°43' W 076°42'0 0.0
2014-Sep-24 02:33N 34°43' W 076°42'0 0.0
2014-Sep-24 01:33N 34°43' W 076°42'0 0.0
2014-Sep-24 00:33N 34°43' W 076°42'  
Track history (hours):
 
Tides and Currents Weather Stations Pressure Air Temp Water Temp Dewpoint Dewpoint Depression Visibility Wind Speed Wind Dir Waves Ship Positions

Jay Michael

Owner: Sterling Equipment Inc., Quincy, MA. More information available from US FCC via Universal Licensing System and Coast Guard Vessel Documentation Center.

Last reported at 2014-Oct-04 00:32 UTC. Time now 2014-Oct-30 12:14 UTC.
Position N 27°00' W 079°51'.
Warning: this ship's position is 26 days out of date.

Length 21 m.

Type: Tug. MMSI: 367110280.

Date/timePositionNaut miles runAvg speedWind from/ knotsBaromVisibWave heightAir tempDewpointWater temp
2014-Oct-04 00:32N 27°00' W 079°51'2211.3
2014-Oct-03 22:33N 26°38' W 079°50'1111.3
2014-Oct-03 21:33N 26°26' W 079°50'1111.4
2014-Oct-03 20:33N 26°15' W 079°50'1110.8
2014-Oct-03 19:33N 26°05' W 079°55'1010.4
2014-Oct-03 18:33N 25°56' W 079°59'10 9.7
2014-Oct-03 17:33N 25°47' W 080°04'6 0.3
2014-Oct-02 20:17N 25°47' W 080°11'0 0.0
2014-Oct-02 19:33N 25°47' W 080°11'0 0.0
2014-Oct-02 18:33N 25°47' W 080°11'0 0.0
2014-Oct-02 17:04N 25°47' W 080°11'0 0.0
2014-Oct-02 16:33N 25°47' W 080°11'0 0.0
2014-Oct-02 14:18N 25°47' W 080°11'0 0.0
2014-Oct-02 13:29N 25°47' W 080°11'0 0.0
2014-Oct-02 12:09N 25°47' W 080°11'0 0.1
2014-Oct-02 11:30N 25°47' W 080°11'0 0.0
2014-Oct-02 10:33N 25°47' W 080°11'0 0.0
2014-Oct-02 09:33N 25°47' W 080°11'0 0.0
2014-Oct-02 08:32N 25°47' W 080°11'0 0.0
2014-Oct-02 07:33N 25°47' W 080°11'0 0.0
2014-Oct-02 06:31N 25°47' W 080°11'0 0.0
2014-Oct-02 05:33N 25°47' W 080°11'0 0.0
2014-Oct-02 04:31N 25°47' W 080°11'0 0.0
2014-Oct-02 03:32N 25°47' W 080°11'0 0.0
2014-Oct-02 02:31N 25°47' W 080°11'0 0.0
2014-Oct-02 01:30N 25°47' W 080°11'0 0.0
2014-Oct-01 23:31N 25°47' W 080°11'0 0.0
2014-Oct-01 22:27N 25°47' W 080°11'0 0.0
2014-Oct-01 21:27N 25°47' W 080°11'0 0.0
2014-Oct-01 20:33N 25°47' W 080°11'0 0.0
2014-Oct-01 18:32N 25°47' W 080°11'4 1.3
2014-Oct-01 15:33N 25°46' W 080°07'3 3.4
2014-Oct-01 14:33N 25°49' W 080°05'0 0.3
2014-Oct-01 13:33N 25°48' W 080°05'3 3.1
2014-Oct-01 12:33N 25°51' W 080°05'4 4.2
2014-Oct-01 11:33N 25°56' W 080°05'4 4.4
2014-Oct-01 10:33N 25°60' W 080°05'4 4.3
2014-Oct-01 09:33N 26°04' W 080°06'4 4.4
2014-Oct-01 08:33N 26°09' W 080°05'4 3.8
2014-Oct-01 07:33N 26°12' W 080°04'4 3.5
2014-Oct-01 06:33N 26°16' W 080°02'4 3.6
2014-Oct-01 05:33N 26°19' W 080°02'4 4.0
2014-Oct-01 04:33N 26°23' W 080°01'6 4.0
2014-Oct-01 03:07N 26°29' W 080°00'3 3.6
2014-Oct-01 02:17N 26°32' W 079°60'5 3.9
2014-Oct-01 01:06N 26°36' W 079°59'12 4.3
2014-Sep-30 22:21N 26°48' W 079°58'3 4.2
2014-Sep-30 21:33N 26°52' W 079°57'4 4.2
2014-Sep-30 20:33N 26°56' W 079°58'4 4.4
2014-Sep-30 19:33N 26°60' W 080°00'  
2014-Sep-25 15:11N 34°32' W 076°50'3 5.0
2014-Sep-25 14:33N 34°34' W 076°47'5 5.1
2014-Sep-25 13:33N 34°38' W 076°43'3 3.1
2014-Sep-25 12:33N 34°40' W 076°40'2 2.4
2014-Sep-25 11:33N 34°42' W 076°41'1 0.9
2014-Sep-25 10:33N 34°43' W 076°42'0 0.0
2014-Sep-25 09:33N 34°43' W 076°42'0 0.0
2014-Sep-25 08:33N 34°43' W 076°42'0 0.0
2014-Sep-25 07:33N 34°43' W 076°42'0 0.0
2014-Sep-25 06:33N 34°43' W 076°42'0 0.0
2014-Sep-25 05:33N 34°43' W 076°42'0 0.0
2014-Sep-25 04:34N 34°43' W 076°42'0 0.0
2014-Sep-25 03:33N 34°43' W 076°42'0 0.0
2014-Sep-25 02:33N 34°43' W 076°42'0 0.0
2014-Sep-25 01:33N 34°43' W 076°42'0 0.0
2014-Sep-25 00:33N 34°43' W 076°42'0 0.0
2014-Sep-24 23:33N 34°43' W 076°42'0 0.0
2014-Sep-24 22:33N 34°43' W 076°42'0 0.0
2014-Sep-24 21:33N 34°43' W 076°42'0 0.0
2014-Sep-24 20:33N 34°43' W 076°42'0 0.0
2014-Sep-24 19:33N 34°43' W 076°42'0 0.0
2014-Sep-24 18:33N 34°43' W 076°42'0 0.0
2014-Sep-24 17:33N 34°43' W 076°42'0 0.0
2014-Sep-24 16:33N 34°43' W 076°42'0 0.0
2014-Sep-24 15:33N 34°43' W 076°42'0 0.0
2014-Sep-24 14:33N 34°43' W 076°42'0 0.0
2014-Sep-24 13:33N 34°43' W 076°42'0 0.0
2014-Sep-24 12:33N 34°43' W 076°42'0 0.0
2014-Sep-24 11:33N 34°43' W 076°42'0 0.0
2014-Sep-24 10:33N 34°43' W 076°42'0 0.0
2014-Sep-24 09:33N 34°43' W 076°42'0 0.0
2014-Sep-24 08:34N 34°43' W 076°42'0 0.0
2014-Sep-24 07:33N 34°43' W 076°42'0 0.0
2014-Sep-24 06:33N 34°43' W 076°42'0 0.0
2014-Sep-24 05:33N 34°43' W 076°42'0 0.0
2014-Sep-24 04:33N 34°43' W 076°42'0 0.0
2014-Sep-24 03:33N 34°43' W 076°42'0 0.0
2014-Sep-24 02:33N 34°43' W 076°42'0 0.0
2014-Sep-24 01:33N 34°43' W 076°42'0 0.0
2014-Sep-24 00:33N 34°43' W 076°42'  

Dump ship's entire track history